Tracking 31027 objects as of 19-Jul-2025
HD Live streaming from Space Station
objects crossing your sky now

THORAD DELTA 1 DEB

Track THORAD DELTA 1 DEB now!
10-day predictions


NORAD ID: 8555
Int'l Code: 1974-089CS
Perigee: 1,401.3 km
Apogee: 1,493.8 km
Inclination: 101.4 °
Period: 114.7 minutes
Semi major axis: 7818 km
RCS: 0.0537 m2 (small)
Launch date: November 15, 1974
Source: United States (US)
Launch site: AIR FORCE WESTERN TEST RANGE (AFWTR)

Note: This is SATELLITE DEBRIS
Your satellite tracking list
COSMOS 830
Track 1 satellite(s)




NASA's NSSDC Master Catalog

Two Line Element Set (TLE):
1 08555U 74089CS  25199.58201913  .00000595  00000-0  38669-2 0  9999
2 08555 101.3983 322.7229 0059111 329.8586  41.0237 12.55779216311541
Source of the keplerian elements: AFSPC